START_TIME,STEP,MOV.,M35,t_acc.,PL05,t_acc.,PL06,t_acc.,PL07,t_acc.
1979-03-06 15:00:21.510 ,0,1,14.,4.8,1152.,4.8,112.,4.8,46.,4.8
1979-03-06 15:00:26.310 ,0,1,12.,4.8,1024.,4.8,74.,4.8,45.,4.8
1979-03-06 15:00:31.110 ,0,1,3.,4.8,864.,4.8,63.,4.8,25.,4.8
1979-03-06 15:00:35.910 ,0,1,0.,4.8,784.,4.8,66.,4.8,29.,4.8
1979-03-06 15:00:40.710 ,0,1,1.,4.8,592.,4.8,47.,4.8,20.,4.8
1979-03-06 15:00:45.510 ,3,1,3.,4.8,576.,4.8,34.,4.8,15.,4.8
1979-03-06 15:00:50.310 ,3,1,0.,4.8,592.,4.8,33.,4.8,17.,4.8
1979-03-06 15:00:55.110 ,3,1,2.,4.8,768.,4.8,66.,4.8,18.,4.8
1979-03-06 15:00:59.910 ,3,1,4.,4.8,912.,4.8,66.,4.8,24.,4.8
1979-03-06 15:01:04.710 ,3,1,7.,4.8,1152.,4.8,74.,4.8,27.,4.8
1979-03-06 15:01:09.510 ,7,1,8.,4.8,1216.,4.8,78.,4.8,29.,4.8
1979-03-06 15:01:14.310 ,7,1,9.,4.8,1152.,4.8,84.,4.8,47.,4.8
1979-03-06 15:01:19.110 ,7,1,3.,4.8,960.,4.8,62.,4.8,38.,4.8
1979-03-06 15:01:23.910 ,7,1,5.,4.8,800.,4.8,48.,4.8,27.,4.8
1979-03-06 15:01:28.710 ,7,1,0.,4.8,112.,4.8,9.,4.8,2.,4.8
1979-03-06 15:01:33.510 ,4,1,0.,4.8,76.,4.8,0.,4.8,0.,4.8
1979-03-06 15:01:38.310 ,4,1,1.,4.8,384.,4.8,28.,4.8,10.,4.8
1979-03-06 15:01:43.110 ,4,1,6.,4.8,912.,4.8,66.,4.8,22.,4.8
1979-03-06 15:01:47.910 ,4,1,7.,4.8,1008.,4.8,70.,4.8,31.,4.8
1979-03-06 15:01:52.710 ,4,1,8.,4.8,1120.,4.8,106.,4.8,37.,4.8
1979-03-06 15:01:57.510 ,0,1,12.,4.8,1120.,4.8,88.,4.8,38.,4.8
1979-03-06 15:02:02.310 ,0,1,7.,4.8,1056.,4.8,78.,4.8,33.,4.8
1979-03-06 15:02:07.110 ,0,1,4.,4.8,944.,4.8,82.,4.8,25.,4.8
1979-03-06 15:02:11.910 ,0,1,4.,4.8,832.,4.8,62.,4.8,19.,4.8
1979-03-06 15:02:16.710 ,0,1,4.,4.8,544.,4.8,34.,4.8,18.,4.8
1979-03-06 15:02:21.510 ,3,1,1.,4.8,488.,4.8,38.,4.8,15.,4.8
1979-03-06 15:02:26.310 ,3,1,2.,4.8,576.,4.8,39.,4.8,19.,4.8
1979-03-06 15:02:31.110 ,3,1,2.,4.8,800.,4.8,70.,4.8,32.,4.8
1979-03-06 15:02:35.910 ,3,1,4.,4.8,880.,4.8,72.,4.8,40.,4.8
1979-03-06 15:02:40.710 ,3,1,9.,4.8,1184.,4.8,110.,4.8,33.,4.8
1979-03-06 15:02:45.510 ,7,1,10.,4.8,1312.,4.8,100.,4.8,48.,4.8
1979-03-06 15:02:50.310 ,7,1,11.,4.8,1248.,4.8,92.,4.8,33.,4.8
1979-03-06 15:02:55.110 ,7,1,8.,4.8,1216.,4.8,88.,4.8,23.,4.8
1979-03-06 15:02:59.910 ,7,1,6.,4.8,992.,4.8,74.,4.8,31.,4.8
1979-03-06 15:03:04.710 ,7,1,0.,4.8,140.,4.8,9.,4.8,6.,4.8
1979-03-06 15:03:09.510 ,4,1,0.,4.8,70.,4.8,0.,4.8,0.,4.8
1979-03-06 15:03:14.310 ,4,1,1.,4.8,392.,4.8,36.,4.8,15.,4.8
1979-03-06 15:03:19.110 ,4,1,7.,4.8,1008.,4.8,88.,4.8,33.,4.8
1979-03-06 15:03:23.910 ,4,1,5.,4.8,1184.,4.8,88.,4.8,37.,4.8
1979-03-06 15:03:28.710 ,4,1,7.,4.8,1344.,4.8,100.,4.8,45.,4.8
1979-03-06 15:03:33.510 ,0,1,10.,4.8,1440.,4.8,110.,4.8,41.,4.8
1979-03-06 15:03:38.310 ,0,1,13.,4.8,1248.,4.8,102.,4.8,44.,4.8
1979-03-06 15:03:43.110 ,0,1,,0,,0,,0,,0
1979-03-06 15:03:47.910 ,0,1,0.,4.8,864.,4.8,52.,4.8,27.,4.8
1979-03-06 15:03:52.710 ,0,1,2.,4.8,576.,4.8,18.,4.8,17.,4.8
1979-03-06 15:03:57.510 ,3,1,3.,4.8,560.,4.8,25.,4.8,13.,4.8
1979-03-06 15:04:02.310 ,3,1,4.,4.8,592.,4.8,36.,4.8,16.,4.8
1979-03-06 15:04:07.110 ,3,1,1.,4.8,864.,4.8,59.,4.8,20.,4.8
1979-03-06 15:04:11.910 ,3,1,7.,4.8,976.,4.8,62.,4.8,29.,4.8
1979-03-06 15:04:16.710 ,3,1,14.,4.8,1216.,4.8,94.,4.8,40.,4.8
1979-03-06 15:04:21.510 ,7,1,8.,4.8,1344.,4.8,98.,4.8,43.,4.8
1979-03-06 15:04:26.310 ,7,1,11.,4.8,1248.,4.8,90.,4.8,43.,4.8
1979-03-06 15:04:31.110 ,7,1,5.,4.8,1056.,4.8,90.,4.8,34.,4.8
1979-03-06 15:04:35.910 ,7,1,7.,4.8,928.,4.8,64.,4.8,24.,4.8
1979-03-06 15:04:40.710 ,7,1,2.,4.8,136.,4.8,16.,4.8,0.,4.8
1979-03-06 15:04:45.510 ,5,0,0.,4.8,56.,4.8,1.,4.8,0.,4.8
1979-03-06 15:04:50.310 ,5,0,2.,4.8,368.,4.8,25.,4.8,5.,4.8
1979-03-06 15:04:55.110 ,5,0,6.,4.8,832.,4.8,56.,4.8,38.,4.8
1979-03-06 15:04:59.910 ,5,0,11.,4.8,1008.,4.8,74.,4.8,46.,4.8
1979-03-06 15:05:04.710 ,5,0,,0,,0,,0,,0
1979-03-06 15:05:09.510 ,0,1,10.,4.8,1184.,4.8,88.,4.8,31.,4.8
1979-03-06 15:05:14.310 ,0,1,14.,4.8,960.,4.8,90.,4.8,39.,4.8
1979-03-06 15:05:19.110 ,0,1,3.,4.8,896.,4.8,64.,4.8,22.,4.8
1979-03-06 15:05:23.910 ,0,1,2.,4.8,784.,4.8,76.,4.8,22.,4.8
1979-03-06 15:05:28.710 ,0,1,0.,4.8,504.,4.8,41.,4.8,10.,4.8
1979-03-06 15:05:33.510 ,3,1,0.,4.8,504.,4.8,37.,4.8,23.,4.8
1979-03-06 15:05:38.310 ,3,1,1.,4.8,560.,4.8,37.,4.8,18.,4.8
1979-03-06 15:05:43.110 ,3,1,5.,4.8,752.,4.8,61.,4.8,23.,4.8
1979-03-06 15:05:47.910 ,3,1,6.,4.8,848.,4.8,76.,4.8,36.,4.8
1979-03-06 15:05:52.710 ,3,1,12.,4.8,992.,4.8,100.,4.8,50.,4.8
1979-03-06 15:05:57.510 ,7,1,16.,4.8,1056.,4.8,92.,4.8,39.,4.8
1979-03-06 15:06:02.310 ,7,1,9.,4.8,1056.,4.8,96.,4.8,35.,4.8
1979-03-06 15:06:07.110 ,7,1,9.,4.8,1024.,4.8,86.,4.8,29.,4.8
1979-03-06 15:06:11.910 ,7,1,2.,4.8,848.,4.8,56.,4.8,23.,4.8
1979-03-06 15:06:16.710 ,7,1,0.,4.8,152.,4.8,7.,4.8,4.,4.8
1979-03-06 15:06:21.510 ,4,1,0.,4.8,60.,4.8,1.,4.8,0.,4.8
1979-03-06 15:06:26.310 ,4,1,1.,4.8,328.,4.8,30.,4.8,4.,4.8
1979-03-06 15:06:31.110 ,4,1,3.,4.8,832.,4.8,61.,4.8,24.,4.8
1979-03-06 15:06:35.910 ,4,1,12.,4.8,1056.,4.8,78.,4.8,43.,4.8
1979-03-06 15:06:40.710 ,4,1,12.,4.8,1184.,4.8,100.,4.8,44.,4.8
1979-03-06 15:06:45.510 ,0,1,8.,4.8,1088.,4.8,86.,4.8,44.,4.8
1979-03-06 15:06:50.310 ,0,1,10.,4.8,1008.,4.8,74.,4.8,35.,4.8
1979-03-06 15:06:55.110 ,0,1,4.,4.8,880.,4.8,88.,4.8,23.,4.8
1979-03-06 15:06:59.910 ,0,1,1.,4.8,736.,4.8,52.,4.8,27.,4.8
1979-03-06 15:07:04.710 ,0,1,1.,4.8,496.,4.8,27.,4.8,17.,4.8
1979-03-06 15:07:09.510 ,3,1,0.,4.8,472.,4.8,23.,4.8,14.,4.8
1979-03-06 15:07:14.310 ,3,1,1.,4.8,592.,4.8,30.,4.8,11.,4.8
1979-03-06 15:07:19.110 ,3,1,3.,4.8,688.,4.8,52.,4.8,23.,4.8
1979-03-06 15:07:23.910 ,3,1,8.,4.8,784.,4.8,60.,4.8,28.,4.8
1979-03-06 15:07:28.710 ,3,1,12.,4.8,896.,4.8,61.,4.8,23.,4.8
1979-03-06 15:07:33.510 ,7,1,16.,4.8,912.,4.8,86.,4.8,19.,4.8
1979-03-06 15:07:38.310 ,7,1,12.,4.8,912.,4.8,66.,4.8,36.,4.8
1979-03-06 15:07:43.110 ,7,1,7.,4.8,752.,4.8,66.,4.8,24.,4.8
1979-03-06 15:07:47.910 ,7,1,4.,4.8,672.,4.8,64.,4.8,21.,4.8
1979-03-06 15:07:52.710 ,7,1,0.,4.8,124.,4.8,6.,4.8,1.,4.8
1979-03-06 15:07:57.510 ,4,1,0.,4.8,48.,4.8,0.,4.8,0.,4.8
1979-03-06 15:08:02.310 ,4,1,1.,4.8,288.,4.8,13.,4.8,13.,4.8
1979-03-06 15:08:07.110 ,4,1,8.,4.8,688.,4.8,50.,4.8,18.,4.8
1979-03-06 15:08:11.910 ,4,1,9.,4.8,704.,4.8,58.,4.8,30.,4.8
1979-03-06 15:08:16.710 ,4,1,9.,4.8,704.,4.8,64.,4.8,17.,4.8
1979-03-06 15:08:21.510 ,0,1,2.,4.8,720.,4.8,70.,4.8,36.,4.8
1979-03-06 15:08:26.310 ,0,1,10.,4.8,656.,4.8,58.,4.8,34.,4.8
1979-03-06 15:08:31.110 ,0,1,5.,4.8,688.,4.8,54.,4.8,19.,4.8
1979-03-06 15:08:35.910 ,0,1,1.,4.8,560.,4.8,45.,4.8,25.,4.8
1979-03-06 15:08:40.710 ,0,1,1.,4.8,416.,4.8,17.,4.8,7.,4.8
1979-03-06 15:08:45.510 ,3,1,1.,4.8,392.,4.8,30.,4.8,12.,4.8
1979-03-06 15:08:50.310 ,3,1,1.,4.8,472.,4.8,33.,4.8,9.,4.8
1979-03-06 15:08:55.110 ,3,1,1.,4.8,640.,4.8,43.,4.8,25.,4.8
1979-03-06 15:08:59.910 ,3,1,5.,4.8,720.,4.8,58.,4.8,28.,4.8
1979-03-06 15:09:04.710 ,3,1,5.,4.8,960.,4.8,82.,4.8,30.,4.8
1979-03-06 15:09:09.510 ,7,1,5.,4.8,960.,4.8,84.,4.8,43.,4.8
1979-03-06 15:09:14.310 ,7,1,14.,4.8,976.,4.8,84.,4.8,28.,4.8
1979-03-06 15:09:19.110 ,7,1,6.,4.8,848.,4.8,78.,4.8,19.,4.8
1979-03-06 15:09:23.910 ,7,1,6.,4.8,736.,4.8,57.,4.8,28.,4.8
1979-03-06 15:09:28.710 ,7,1,1.,4.8,122.,4.8,7.,4.8,5.,4.8
1979-03-06 15:09:33.510 ,4,1,0.,4.8,61.,4.8,3.,4.8,1.,4.8
1979-03-06 15:09:38.310 ,4,1,0.,4.8,312.,4.8,25.,4.8,8.,4.8
1979-03-06 15:09:43.110 ,4,1,7.,4.8,736.,4.8,68.,4.8,31.,4.8
1979-03-06 15:09:47.910 ,4,1,14.,4.8,912.,4.8,86.,4.8,39.,4.8
1979-03-06 15:09:52.710 ,4,1,16.,4.8,1120.,4.8,88.,4.8,40.,4.8
1979-03-06 15:09:57.510 ,0,1,,0,,0,,0,,0
1979-03-06 15:10:02.310 ,0,1,20.,4.8,976.,4.8,96.,4.8,32.,4.8
1979-03-06 15:10:07.110 ,0,1,6.,4.8,768.,4.8,68.,4.8,28.,4.8
1979-03-06 15:10:11.910 ,0,1,3.,4.8,656.,4.8,63.,4.8,34.,4.8
1979-03-06 15:10:16.710 ,0,1,2.,4.8,472.,4.8,40.,4.8,16.,4.8
1979-03-06 15:10:21.510 ,3,1,3.,4.8,408.,4.8,29.,4.8,16.,4.8
1979-03-06 15:10:26.310 ,3,1,0.,4.8,504.,4.8,50.,4.8,17.,4.8
1979-03-06 15:10:31.110 ,3,1,6.,4.8,688.,4.8,58.,4.8,20.,4.8
1979-03-06 15:10:35.910 ,3,1,2.,4.8,816.,4.8,76.,4.8,28.,4.8
1979-03-06 15:10:40.710 ,3,1,14.,4.8,976.,4.8,80.,4.8,42.,4.8
1979-03-06 15:10:45.510 ,7,1,13.,4.8,1152.,4.8,78.,4.8,58.,4.8
1979-03-06 15:10:50.310 ,7,1,10.,4.8,1056.,4.8,70.,4.8,43.,4.8
1979-03-06 15:10:55.110 ,7,1,11.,4.8,880.,4.8,72.,4.8,20.,4.8
1979-03-06 15:10:59.910 ,7,1,4.,4.8,784.,4.8,64.,4.8,23.,4.8
1979-03-06 15:11:04.710 ,7,1,1.,4.8,118.,4.8,5.,4.8,1.,4.8
1979-03-06 15:11:09.510 ,4,1,0.,4.8,61.,4.8,1.,4.8,0.,4.8
1979-03-06 15:11:14.310 ,4,1,0.,4.8,296.,4.8,21.,4.8,9.,4.8
1979-03-06 15:11:19.110 ,4,1,0.,4.8,736.,4.8,64.,4.8,26.,4.8
1979-03-06 15:11:23.910 ,4,1,11.,4.8,960.,4.8,72.,4.8,27.,4.8
1979-03-06 15:11:28.710 ,4,1,14.,4.8,1248.,4.8,102.,4.8,53.,4.8
1979-03-06 15:11:33.510 ,0,1,9.,4.8,1632.,4.8,148.,4.8,58.,4.8
1979-03-06 15:11:38.310 ,0,1,13.,4.8,1888.,4.8,184.,4.8,66.,4.8
1979-03-06 15:11:43.110 ,0,1,4.,4.8,1472.,4.8,152.,4.8,76.,4.8
1979-03-06 15:11:47.910 ,0,1,2.,4.8,1216.,4.8,132.,4.8,45.,4.8
1979-03-06 15:11:52.710 ,0,1,2.,4.8,736.,4.8,70.,4.8,46.,4.8
1979-03-06 15:11:57.510 ,3,1,2.,4.8,704.,4.8,78.,4.8,41.,4.8
1979-03-06 15:12:02.310 ,3,1,2.,4.8,880.,4.8,100.,4.8,56.,4.8
1979-03-06 15:12:07.110 ,3,1,9.,4.8,1248.,4.8,126.,4.8,60.,4.8
1979-03-06 15:12:11.910 ,3,1,7.,4.8,1568.,4.8,160.,4.8,70.,4.8
1979-03-06 15:12:16.710 ,3,1,17.,4.8,2112.,4.8,196.,4.8,100.,4.8
1979-03-06 15:12:21.510 ,7,1,15.,4.8,2240.,4.8,220.,4.8,78.,4.8
1979-03-06 15:12:26.310 ,7,1,7.,4.8,2112.,4.8,200.,4.8,94.,4.8
1979-03-06 15:12:31.110 ,7,1,11.,4.8,1600.,4.8,148.,4.8,74.,4.8
1979-03-06 15:12:35.910 ,7,1,5.,4.8,1184.,4.8,132.,4.8,60.,4.8
1979-03-06 15:12:40.710 ,7,1,0.,4.8,184.,4.8,15.,4.8,4.,4.8
1979-03-06 15:12:45.510 ,4,1,0.,4.8,60.,4.8,1.,4.8,0.,4.8
1979-03-06 15:12:50.310 ,4,1,4.,4.8,512.,4.8,57.,4.8,28.,4.8
1979-03-06 15:12:55.110 ,4,1,2.,4.8,1248.,4.8,124.,4.8,51.,4.8
1979-03-06 15:12:59.910 ,4,1,6.,4.8,1664.,4.8,148.,4.8,70.,4.8
1979-03-06 15:13:04.710 ,4,1,15.,4.8,2112.,4.8,216.,4.8,78.,4.8
1979-03-06 15:13:09.510 ,0,1,25.,4.8,2016.,4.8,192.,4.8,106.,4.8
1979-03-06 15:13:14.310 ,0,1,12.,4.8,1760.,4.8,204.,4.8,86.,4.8
1979-03-06 15:13:19.110 ,0,1,9.,4.8,1344.,4.8,176.,4.8,57.,4.8
1979-03-06 15:13:23.910 ,0,1,2.,4.8,1152.,4.8,102.,4.8,59.,4.8
1979-03-06 15:13:28.710 ,0,1,0.,4.8,704.,4.8,70.,4.8,35.,4.8
1979-03-06 15:13:33.510 ,3,1,2.,4.8,656.,4.8,55.,4.8,23.,4.8
1979-03-06 15:13:38.310 ,3,1,2.,4.8,832.,4.8,80.,4.8,40.,4.8
1979-03-06 15:13:43.110 ,3,1,7.,4.8,1152.,4.8,114.,4.8,66.,4.8
1979-03-06 15:13:47.910 ,3,1,6.,4.8,1472.,4.8,156.,4.8,80.,4.8
1979-03-06 15:13:52.710 ,3,1,22.,4.8,1952.,4.8,200.,4.8,102.,4.8
1979-03-06 15:13:57.510 ,7,1,17.,4.8,1984.,4.8,208.,4.8,114.,4.8
1979-03-06 15:14:02.310 ,7,1,10.,4.8,1760.,4.8,176.,4.8,84.,4.8
1979-03-06 15:14:07.110 ,7,1,5.,4.8,1472.,4.8,168.,4.8,92.,4.8
1979-03-06 15:14:11.910 ,7,1,9.,4.8,1184.,4.8,128.,4.8,58.,4.8
1979-03-06 15:14:16.710 ,7,1,1.,4.8,192.,4.8,20.,4.8,7.,4.8
1979-03-06 15:14:21.510 ,4,1,0.,4.8,56.,4.8,2.,4.8,0.,4.8
1979-03-06 15:14:26.310 ,4,1,1.,4.8,528.,4.8,48.,4.8,20.,4.8
1979-03-06 15:14:31.110 ,4,1,5.,4.8,1216.,4.8,122.,4.8,50.,4.8
1979-03-06 15:14:35.910 ,4,1,9.,4.8,1696.,4.8,200.,4.8,78.,4.8
1979-03-06 15:14:40.710 ,4,1,19.,4.8,1792.,4.8,188.,4.8,98.,4.8
1979-03-06 15:14:45.510 ,0,1,22.,4.8,1792.,4.8,180.,4.8,92.,4.8
1979-03-06 15:14:50.310 ,0,1,18.,4.8,1632.,4.8,180.,4.8,76.,4.8
1979-03-06 15:14:55.110 ,0,1,7.,4.8,1376.,4.8,172.,4.8,84.,4.8
1979-03-06 15:14:59.910 ,0,1,3.,4.8,1152.,4.8,148.,4.8,72.,4.8
1979-03-06 15:15:04.710 ,0,1,5.,4.8,720.,4.8,98.,4.8,40.,4.8
1979-03-06 15:15:09.510 ,3,1,2.,4.8,752.,4.8,84.,4.8,48.,4.8
1979-03-06 15:15:14.310 ,3,1,5.,4.8,864.,4.8,92.,4.8,40.,4.8
1979-03-06 15:15:19.110 ,3,1,4.,4.8,1152.,4.8,128.,4.8,61.,4.8
1979-03-06 15:15:23.910 ,3,1,11.,4.8,1536.,4.8,176.,4.8,74.,4.8
1979-03-06 15:15:28.710 ,3,1,12.,4.8,1856.,4.8,248.,4.8,102.,4.8
1979-03-06 15:15:33.510 ,7,1,18.,4.8,2048.,4.8,212.,4.8,100.,4.8
1979-03-06 15:15:38.310 ,7,1,16.,4.8,1888.,4.8,204.,4.8,84.,4.8
1979-03-06 15:15:43.110 ,7,1,11.,4.8,1632.,4.8,164.,4.8,56.,4.8
1979-03-06 15:15:47.910 ,7,1,10.,4.8,1344.,4.8,120.,4.8,52.,4.8
1979-03-06 15:15:52.710 ,7,1,1.,4.8,204.,4.8,19.,4.8,6.,4.8
1979-03-06 15:15:57.510 ,4,1,0.,4.8,78.,4.8,0.,4.8,0.,4.8
1979-03-06 15:16:02.310 ,4,1,1.,4.8,624.,4.8,74.,4.8,27.,4.8
1979-03-06 15:16:07.110 ,4,1,6.,4.8,1472.,4.8,168.,4.8,53.,4.8
1979-03-06 15:16:11.910 ,4,1,9.,4.8,1824.,4.8,188.,4.8,96.,4.8
1979-03-06 15:16:16.710 ,4,1,21.,4.8,2112.,4.8,236.,4.8,94.,4.8
1979-03-06 15:16:21.510 ,0,1,21.,4.8,2048.,4.8,216.,4.8,106.,4.8
1979-03-06 15:16:26.310 ,0,1,9.,4.8,1824.,4.8,212.,4.8,88.,4.8
1979-03-06 15:16:31.110 ,0,1,6.,4.8,1568.,4.8,168.,4.8,78.,4.8
1979-03-06 15:16:35.910 ,0,1,3.,4.8,1248.,4.8,122.,4.8,38.,4.8
1979-03-06 15:16:40.710 ,0,1,3.,4.8,784.,4.8,66.,4.8,30.,4.8
1979-03-06 15:16:45.510 ,3,1,0.,4.8,720.,4.8,78.,4.8,27.,4.8
1979-03-06 15:16:50.310 ,3,1,0.,4.8,928.,4.8,94.,4.8,27.,4.8
1979-03-06 15:16:55.110 ,3,1,4.,4.8,1280.,4.8,122.,4.8,38.,4.8
1979-03-06 15:16:59.910 ,3,1,8.,4.8,1472.,4.8,160.,4.8,82.,4.8
1979-03-06 15:17:04.710 ,3,1,17.,4.8,1888.,4.8,224.,4.8,104.,4.8
1979-03-06 15:17:09.510 ,7,1,15.,4.8,2016.,4.8,216.,4.8,102.,4.8
1979-03-06 15:17:14.310 ,7,1,10.,4.8,1888.,4.8,204.,4.8,96.,4.8
1979-03-06 15:17:19.110 ,7,1,14.,4.8,1664.,4.8,184.,4.8,72.,4.8
1979-03-06 15:17:23.910 ,7,1,7.,4.8,1376.,4.8,132.,4.8,49.,4.8
1979-03-06 15:17:28.710 ,7,1,0.,4.8,200.,4.8,16.,4.8,10.,4.8
1979-03-06 15:17:33.510 ,4,1,0.,4.8,49.,4.8,0.,4.8,1.,4.8
1979-03-06 15:17:38.310 ,4,1,2.,4.8,576.,4.8,40.,4.8,17.,4.8
1979-03-06 15:17:43.110 ,4,1,6.,4.8,1376.,4.8,148.,4.8,59.,4.8
1979-03-06 15:17:47.910 ,4,1,9.,4.8,1632.,4.8,184.,4.8,82.,4.8
1979-03-06 15:17:52.710 ,4,1,29.,4.8,1952.,4.8,208.,4.8,98.,4.8
1979-03-06 15:17:57.510 ,0,1,20.,4.8,1888.,4.8,212.,4.8,84.,4.8
1979-03-06 15:18:02.310 ,0,1,15.,4.8,1760.,4.8,200.,4.8,66.,4.8
1979-03-06 15:18:07.110 ,0,1,8.,4.8,1536.,4.8,164.,4.8,72.,4.8
1979-03-06 15:18:11.910 ,0,1,6.,4.8,1280.,4.8,148.,4.8,58.,4.8
1979-03-06 15:18:16.710 ,0,1,0.,4.8,784.,4.8,74.,4.8,39.,4.8
1979-03-06 15:18:21.510 ,3,1,2.,4.8,784.,4.8,64.,4.8,23.,4.8
1979-03-06 15:18:26.310 ,3,1,0.,4.8,912.,4.8,82.,4.8,54.,4.8
1979-03-06 15:18:31.110 ,3,1,8.,4.8,1312.,4.8,144.,4.8,50.,4.8
1979-03-06 15:18:35.910 ,3,1,4.,4.8,1536.,4.8,184.,4.8,78.,4.8
1979-03-06 15:18:40.710 ,3,1,14.,4.8,1824.,4.8,224.,4.8,88.,4.8
1979-03-06 15:18:45.510 ,7,1,21.,4.8,2016.,4.8,256.,4.8,118.,4.8
1979-03-06 15:18:50.310 ,7,1,10.,4.8,1888.,4.8,228.,4.8,102.,4.8
1979-03-06 15:18:55.110 ,7,1,12.,4.8,1664.,4.8,188.,4.8,88.,4.8
1979-03-06 15:18:59.910 ,7,1,6.,4.8,1504.,4.8,152.,4.8,70.,4.8
1979-03-06 15:19:04.710 ,7,1,0.,4.8,216.,4.8,17.,4.8,9.,4.8
1979-03-06 15:19:09.510 ,4,1,0.,4.8,63.,4.8,3.,4.8,0.,4.8
1979-03-06 15:19:14.310 ,4,1,2.,4.8,560.,4.8,46.,4.8,29.,4.8
1979-03-06 15:19:19.110 ,4,1,8.,4.8,1312.,4.8,152.,4.8,62.,4.8
1979-03-06 15:19:23.910 ,4,1,14.,4.8,1504.,4.8,172.,4.8,74.,4.8
1979-03-06 15:19:28.710 ,4,1,21.,4.8,1600.,4.8,180.,4.8,78.,4.8
1979-03-06 15:19:33.510 ,0,1,35.,4.8,1600.,4.8,176.,4.8,78.,4.8
1979-03-06 15:19:38.310 ,0,1,14.,4.8,1376.,4.8,156.,4.8,66.,4.8
1979-03-06 15:19:43.110 ,0,1,9.,4.8,1216.,4.8,112.,4.8,66.,4.8
1979-03-06 15:19:47.910 ,0,1,3.,4.8,1088.,4.8,98.,4.8,42.,4.8
1979-03-06 15:19:52.710 ,0,1,1.,4.8,656.,4.8,70.,4.8,23.,4.8
1979-03-06 15:19:57.510 ,3,1,4.,4.8,672.,4.8,64.,4.8,24.,4.8
1979-03-06 15:20:02.310 ,3,1,4.,4.8,816.,4.8,72.,4.8,35.,4.8
1979-03-06 15:20:07.110 ,3,1,4.,4.8,1152.,4.8,102.,4.8,64.,4.8
1979-03-06 15:20:11.910 ,3,1,10.,4.8,1312.,4.8,128.,4.8,50.,4.8
1979-03-06 15:20:16.710 ,3,1,16.,4.8,1536.,4.8,168.,4.8,70.,4.8
1979-03-06 15:20:21.510 ,7,1,16.,4.8,1600.,4.8,168.,4.8,76.,4.8
1979-03-06 15:20:26.310 ,7,1,10.,4.8,1600.,4.8,156.,4.8,86.,4.8
1979-03-06 15:20:31.110 ,7,1,11.,4.8,1408.,4.8,132.,4.8,64.,4.8
1979-03-06 15:20:35.910 ,7,1,8.,4.8,1184.,4.8,126.,4.8,57.,4.8
1979-03-06 15:20:40.710 ,7,1,0.,4.8,200.,4.8,19.,4.8,3.,4.8
1979-03-06 15:20:45.510 ,4,1,0.,4.8,43.,4.8,1.,4.8,0.,4.8
1979-03-06 15:20:50.310 ,4,1,1.,4.8,512.,4.8,38.,4.8,13.,4.8
1979-03-06 15:20:55.110 ,4,1,10.,4.8,1216.,4.8,132.,4.8,43.,4.8
1979-03-06 15:20:59.910 ,4,1,10.,4.8,1440.,4.8,140.,4.8,62.,4.8
1979-03-06 15:21:04.710 ,4,1,22.,4.8,1728.,4.8,176.,4.8,78.,4.8
1979-03-06 15:21:09.510 ,0,1,16.,4.8,1632.,4.8,184.,4.8,100.,4.8
1979-03-06 15:21:14.310 ,0,1,22.,4.8,1472.,4.8,156.,4.8,68.,4.8
1979-03-06 15:21:19.110 ,0,1,8.,4.8,1248.,4.8,124.,4.8,55.,4.8
1979-03-06 15:21:23.910 ,0,1,1.,4.8,1120.,4.8,128.,4.8,54.,4.8
1979-03-06 15:21:28.710 ,0,1,3.,4.8,752.,4.8,74.,4.8,32.,4.8
1979-03-06 15:21:33.510 ,3,1,1.,4.8,720.,4.8,76.,4.8,36.,4.8
1979-03-06 15:21:38.310 ,3,1,6.,4.8,880.,4.8,74.,4.8,38.,4.8
1979-03-06 15:21:43.110 ,3,1,2.,4.8,1152.,4.8,100.,4.8,34.,4.8
1979-03-06 15:21:47.910 ,3,1,8.,4.8,1376.,4.8,144.,4.8,50.,4.8
1979-03-06 15:21:52.710 ,3,1,23.,4.8,1760.,4.8,156.,4.8,70.,4.8
1979-03-06 15:21:57.510 ,7,1,19.,4.8,1696.,4.8,172.,4.8,76.,4.8
1979-03-06 15:22:02.310 ,7,1,16.,4.8,1696.,4.8,172.,4.8,98.,4.8
1979-03-06 15:22:07.110 ,7,1,16.,4.8,1472.,4.8,136.,4.8,66.,4.8
1979-03-06 15:22:11.910 ,7,1,6.,4.8,1248.,4.8,156.,4.8,62.,4.8
1979-03-06 15:22:16.710 ,7,1,0.,4.8,164.,4.8,15.,4.8,5.,4.8
1979-03-06 15:22:21.510 ,4,1,0.,4.8,52.,4.8,1.,4.8,0.,4.8
1979-03-06 15:22:26.310 ,4,1,3.,4.8,528.,4.8,51.,4.8,23.,4.8
1979-03-06 15:22:31.110 ,4,1,9.,4.8,1280.,4.8,132.,4.8,64.,4.8
1979-03-06 15:22:35.910 ,4,1,17.,4.8,1568.,4.8,164.,4.8,59.,4.8
1979-03-06 15:22:40.710 ,4,1,20.,4.8,1824.,4.8,172.,4.8,86.,4.8
1979-03-06 15:22:45.510 ,0,1,18.,4.8,1792.,4.8,160.,4.8,110.,4.8
1979-03-06 15:22:50.310 ,0,1,14.,4.8,1664.,4.8,168.,4.8,64.,4.8
1979-03-06 15:22:55.110 ,0,1,8.,4.8,1568.,4.8,136.,4.8,53.,4.8
1979-03-06 15:22:59.910 ,0,1,2.,4.8,1312.,4.8,164.,4.8,58.,4.8
1979-03-06 15:23:04.710 ,0,1,3.,4.8,912.,4.8,68.,4.8,42.,4.8
1979-03-06 15:23:09.510 ,3,1,1.,4.8,864.,4.8,80.,4.8,41.,4.8
1979-03-06 15:23:14.310 ,3,1,2.,4.8,1152.,4.8,116.,4.8,47.,4.8
1979-03-06 15:23:19.110 ,3,1,5.,4.8,1440.,4.8,160.,4.8,57.,4.8
1979-03-06 15:23:23.910 ,3,1,6.,4.8,1632.,4.8,172.,4.8,70.,4.8
1979-03-06 15:23:28.710 ,3,1,19.,4.8,1984.,4.8,240.,4.8,96.,4.8
1979-03-06 15:23:33.510 ,7,1,22.,4.8,2016.,4.8,216.,4.8,76.,4.8
1979-03-06 15:23:38.310 ,7,1,15.,4.8,1952.,4.8,212.,4.8,74.,4.8
1979-03-06 15:23:43.110 ,7,1,20.,4.8,1760.,4.8,152.,4.8,66.,4.8
1979-03-06 15:23:47.910 ,7,1,10.,4.8,1408.,4.8,126.,4.8,53.,4.8
1979-03-06 15:23:52.710 ,7,1,3.,4.8,216.,4.8,12.,4.8,7.,4.8
1979-03-06 15:23:57.510 ,4,1,0.,4.8,54.,4.8,0.,4.8,1.,4.8
1979-03-06 15:24:02.310 ,4,1,1.,4.8,592.,4.8,47.,4.8,20.,4.8
1979-03-06 15:24:07.110 ,4,1,10.,4.8,1472.,4.8,156.,4.8,66.,4.8
1979-03-06 15:24:11.910 ,4,1,23.,4.8,1760.,4.8,196.,4.8,82.,4.8
1979-03-06 15:24:16.710 ,4,1,26.,4.8,1952.,4.8,200.,4.8,84.,4.8
1979-03-06 15:24:21.510 ,0,1,21.,4.8,2016.,4.8,192.,4.8,90.,4.8
1979-03-06 15:24:26.310 ,0,1,13.,4.8,1888.,4.8,244.,4.8,96.,4.8
1979-03-06 15:24:31.110 ,0,1,10.,4.8,1696.,4.8,156.,4.8,72.,4.8
1979-03-06 15:24:35.910 ,0,1,4.,4.8,1408.,4.8,160.,4.8,60.,4.8
1979-03-06 15:24:40.710 ,0,1,1.,4.8,928.,4.8,92.,4.8,43.,4.8
1979-03-06 15:24:45.510 ,3,1,3.,4.8,880.,4.8,92.,4.8,47.,4.8
1979-03-06 15:24:50.310 ,3,1,3.,4.8,1088.,4.8,116.,4.8,62.,4.8
1979-03-06 15:24:55.110 ,3,1,2.,4.8,1504.,4.8,144.,4.8,66.,4.8
1979-03-06 15:24:59.910 ,3,1,8.,4.8,1888.,4.8,208.,4.8,94.,4.8
1979-03-06 15:25:04.710 ,3,1,12.,4.8,2304.,4.8,256.,4.8,104.,4.8
1979-03-06 15:25:09.510 ,7,1,31.,4.8,2432.,4.8,252.,4.8,118.,4.8
1979-03-06 15:25:14.310 ,7,1,18.,4.8,2304.,4.8,220.,4.8,122.,4.8
1979-03-06 15:25:19.110 ,7,1,15.,4.8,1984.,4.8,220.,4.8,112.,4.8
1979-03-06 15:25:23.910 ,7,1,8.,4.8,1760.,4.8,192.,4.8,88.,4.8
1979-03-06 15:25:28.710 ,7,1,1.,4.8,256.,4.8,25.,4.8,12.,4.8
1979-03-06 15:25:33.510 ,4,1,0.,4.8,86.,4.8,0.,4.8,0.,4.8
1979-03-06 15:25:38.310 ,4,1,3.,4.8,816.,4.8,70.,4.8,39.,4.8
1979-03-06 15:25:43.110 ,4,1,4.,4.8,1824.,4.8,232.,4.8,78.,4.8
1979-03-06 15:25:47.910 ,4,1,13.,4.8,2304.,4.8,264.,4.8,126.,4.8
1979-03-06 15:25:52.710 ,4,1,23.,4.8,2432.,4.8,304.,4.8,156.,4.8
1979-03-06 15:25:57.510 ,0,1,15.,4.8,2496.,4.8,296.,4.8,136.,4.8
1979-03-06 15:26:02.310 ,0,1,10.,4.8,2304.,4.8,256.,4.8,112.,4.8
1979-03-06 15:26:07.110 ,0,1,5.,4.8,1920.,4.8,236.,4.8,82.,4.8
1979-03-06 15:26:11.910 ,0,1,1.,4.8,1728.,4.8,192.,4.8,78.,4.8
1979-03-06 15:26:16.710 ,0,1,4.,4.8,1120.,4.8,120.,4.8,60.,4.8
1979-03-06 15:26:21.510 ,3,1,1.,4.8,1024.,4.8,90.,4.8,35.,4.8
1979-03-06 15:26:26.310 ,3,1,0.,4.8,1280.,4.8,144.,4.8,56.,4.8
1979-03-06 15:26:31.110 ,3,1,2.,4.8,1824.,4.8,208.,4.8,74.,4.8
1979-03-06 15:26:35.910 ,3,1,7.,4.8,2112.,4.8,272.,4.8,92.,4.8
1979-03-06 15:26:40.710 ,3,1,13.,4.8,2624.,4.8,312.,4.8,148.,4.8
1979-03-06 15:26:45.510 ,7,1,16.,4.8,2688.,4.8,344.,4.8,160.,4.8
1979-03-06 15:26:50.310 ,7,1,27.,4.8,2624.,4.8,312.,4.8,144.,4.8
1979-03-06 15:26:55.110 ,7,1,18.,4.8,2304.,4.8,264.,4.8,118.,4.8
1979-03-06 15:26:59.910 ,7,1,12.,4.8,1952.,4.8,228.,4.8,104.,4.8
1979-03-06 15:27:04.710 ,7,1,1.,4.8,256.,4.8,19.,4.8,11.,4.8
1979-03-06 15:27:09.510 ,4,1,0.,4.8,78.,4.8,1.,4.8,0.,4.8
1979-03-06 15:27:14.310 ,4,1,5.,4.8,720.,4.8,104.,4.8,29.,4.8
1979-03-06 15:27:19.110 ,4,1,8.,4.8,1888.,4.8,252.,4.8,88.,4.8
1979-03-06 15:27:23.910 ,4,1,8.,4.8,2176.,4.8,280.,4.8,122.,4.8
1979-03-06 15:27:28.710 ,4,1,22.,4.8,2304.,4.8,336.,4.8,140.,4.8
1979-03-06 15:27:33.510 ,0,1,23.,4.8,2240.,4.8,296.,4.8,118.,4.8
1979-03-06 15:27:38.310 ,0,1,11.,4.8,1920.,4.8,220.,4.8,92.,4.8
1979-03-06 15:27:43.110 ,0,1,6.,4.8,1472.,4.8,140.,4.8,70.,4.8
1979-03-06 15:27:47.910 ,0,1,2.,4.8,1248.,4.8,94.,4.8,51.,4.8
1979-03-06 15:27:52.710 ,0,1,2.,4.8,864.,4.8,58.,4.8,30.,4.8
1979-03-06 15:27:57.510 ,3,1,4.,4.8,816.,4.8,60.,4.8,28.,4.8
1979-03-06 15:28:02.310 ,3,1,0.,4.8,976.,4.8,64.,4.8,33.,4.8
1979-03-06 15:28:07.110 ,3,1,4.,4.8,1280.,4.8,112.,4.8,52.,4.8
1979-03-06 15:28:11.910 ,3,1,4.,4.8,1504.,4.8,156.,4.8,63.,4.8
1979-03-06 15:28:16.710 ,3,1,14.,4.8,1856.,4.8,208.,4.8,76.,4.8
1979-03-06 15:28:21.510 ,7,1,25.,4.8,2048.,4.8,272.,4.8,90.,4.8
1979-03-06 15:28:26.310 ,7,1,20.,4.8,1952.,4.8,252.,4.8,104.,4.8
1979-03-06 15:28:31.110 ,7,1,12.,4.8,1760.,4.8,180.,4.8,82.,4.8
1979-03-06 15:28:35.910 ,7,1,8.,4.8,1408.,4.8,136.,4.8,58.,4.8
1979-03-06 15:28:40.710 ,7,1,0.,4.8,184.,4.8,22.,4.8,4.,4.8
1979-03-06 15:28:45.510 ,5,0,0.,4.8,68.,4.8,3.,4.8,0.,4.8
1979-03-06 15:28:50.310 ,5,0,8.,4.8,544.,4.8,54.,4.8,22.,4.8
1979-03-06 15:28:55.110 ,5,0,9.,4.8,1280.,4.8,116.,4.8,58.,4.8
1979-03-06 15:28:59.910 ,5,0,12.,4.8,1632.,4.8,176.,4.8,76.,4.8
1979-03-06 15:29:04.710 ,5,0,,0,,0,,0,,0
1979-03-06 15:29:09.510 ,0,1,17.,4.8,1632.,4.8,132.,4.8,74.,4.8
1979-03-06 15:29:14.310 ,0,1,9.,4.8,1344.,4.8,144.,4.8,50.,4.8
1979-03-06 15:29:19.110 ,0,1,6.,4.8,1152.,4.8,128.,4.8,32.,4.8
1979-03-06 15:29:23.910 ,0,1,2.,4.8,1088.,4.8,98.,4.8,25.,4.8
1979-03-06 15:29:28.710 ,0,1,1.,4.8,752.,4.8,47.,4.8,16.,4.8
1979-03-06 15:29:33.510 ,3,1,1.,4.8,672.,4.8,44.,4.8,29.,4.8
1979-03-06 15:29:38.310 ,3,1,0.,4.8,800.,4.8,64.,4.8,19.,4.8
1979-03-06 15:29:43.110 ,3,1,2.,4.8,976.,4.8,96.,4.8,42.,4.8
1979-03-06 15:29:47.910 ,3,1,3.,4.8,1120.,4.8,92.,4.8,42.,4.8
1979-03-06 15:29:52.710 ,3,1,13.,4.8,1344.,4.8,136.,4.8,48.,4.8
1979-03-06 15:29:57.510 ,7,1,23.,4.8,1472.,4.8,148.,4.8,72.,4.8
1979-03-06 15:30:02.310 ,7,1,22.,4.8,1472.,4.8,144.,4.8,70.,4.8
1979-03-06 15:30:07.110 ,7,1,13.,4.8,1248.,4.8,144.,4.8,66.,4.8
1979-03-06 15:30:11.910 ,7,1,8.,4.8,1120.,4.8,104.,4.8,39.,4.8
1979-03-06 15:30:16.710 ,7,1,1.,4.8,172.,4.8,10.,4.8,7.,4.8
1979-03-06 15:30:21.510 ,4,1,0.,4.8,55.,4.8,0.,4.8,0.,4.8
1979-03-06 15:30:26.310 ,4,1,2.,4.8,400.,4.8,37.,4.8,16.,4.8
1979-03-06 15:30:31.110 ,4,1,4.,4.8,1056.,4.8,94.,4.8,42.,4.8
1979-03-06 15:30:35.910 ,4,1,16.,4.8,1216.,4.8,128.,4.8,58.,4.8